パンスターズ彗星

P/2016 S1 ( PanSTARRS )

English version
Home page
Updated on October 8, 2017

---------------------------------------------------------------------

・ プロフィール

発見日 2016年9月21日
発見光度 19.4等
発見者 Pan-STARRS 1 telescope (Haleakala)

・ 写真集

・ 軌道要素

Epoch 2017 Mar. 28.0 TT = JDT 2457840.5
T 2017 Mar. 16.82490 TT                                 MPCW
q   2.4118854            (2000.0)            P               Q
n   0.04135235     Peri.  273.61552     +0.01763263     -0.67753629
a   8.2820137      Node   227.53996     +0.30242887     -0.69733016
e   0.7087803      Incl.   94.69014     -0.95300885     -0.23382733
P  23.83
From 125 observations 2016 Sept. 21-2017 June 12, mean residual 0".4.

・ 星図

・ 光度変化

        m1 = 11.5 + 5 logΔ + 10.0 log r

---------------------------------------------------------------------

軌道要素はM.P.E.C. 2017-N58に掲載されたものです。
星図はステラナビゲータ Ver.10 (アストロアーツ) で作成したものです。
光度グラフはComet for Windowsで作成したものです。

---------------------------------------------------------------------

Copyright(C) Seiichi Yoshida (comet@aerith.net). All rights reserved.